Regional Weather Roundup
Issued by NWS

Home | Current Version | Previous Version | Text Only | Print | Product List | Glossary Off
Versions: 1 2 3 4 5 6 7 8 9 10 11 12 13 14 15 16 17 18 19 20 21 22 23 24 25 26 27 28 29 30 31 32 33 34 35 36 37 38 39 40 41 42 43 44 45 46 47 48 49 50

000
ASUS45 KABQ 210410
RWRNM
WEATHER ROUNDUP FOR NEW MEXICO
NATIONAL WEATHER SERVICE ALBUQUERQUE NM
1000 PM MDT MON APR 20 2015

NOTE: "FAIR" MEANS FEW OR NO CLOUDS BELOW 12,000 FEET AGL WITH NO
       SIGNIFICANT WEATHER OR OBSTRUCTIONS TO VISION.

      THIS PRODUCT IS RELEASED AS TWO VERSIONS.  ONE VERSION NEAR
      THE TOP OF THE HOUR CONTAINING PRELIMINARY DATA FROM ALBUQUERQUE
      AND OTHER STATIONS.  A FINAL VERSION WITH ADDITIONAL DATA IS
      ISSUED ABOUT 10 MINUTES AFTER THE HOUR.

NMZ501-503-504-510>518-210500-
NORTHWEST PLATEAU/NORTHCENTRAL MOUNTAINS

CITY           SKY/WX    TMP DP  RH WIND       PRES   REMARKS
FARMINGTON     CLEAR     56  21  25 S6        29.92R
LOS ALAMOS     PTCLDY    52  19  27 W5        30.02R
SANTA FE       MOCLDY    52  20  28 NW7       29.97R
TAOS           MOCLDY    41  21  45 SW5       30.01R
ANGEL FIRE     FAIR      35  28  75 CALM      30.07R

$$
NMZ402-403-502-505>509-210500-
WESTCENTRAL MOUNTAINS/SOUTHWEST MOUNTAINS

CITY           SKY/WX    TMP DP  RH WIND       PRES   REMARKS
GALLUP         MOCLDY    56  18  22 CALM      30.00S
GRANTS         CLOUDY    50  19  29 CALM      30.03R
SILVER CITY      N/A     50  19  29 NW8       29.98R

$$
NMZ407-409-411-412-210500-
SOUTHERN DESERTS

CITY           SKY/WX    TMP DP  RH WIND       PRES   REMARKS
LORDSBURG      FAIR      68  19  15 SW8       29.90S
DEMING         PTCLDY    64  20  18 W6        29.91R
LAS CRUCES     PTCLDY    61  19  20 SW6       29.92R
HOLLOMAN AFB   CLOUDY    70  25  18 E3        29.87S
ALAMOGORDO     CLOUDY    66  27  22 E6        29.89F
T OR C         PTCLDY    61  22  22 W9        29.92R

$$
NMZ519>523-210500-
CENTRAL VALLEYS/CENTRAL HIGHLANDS

CITY           SKY/WX    TMP DP  RH WIND       PRES   REMARKS
ALBUQUERQUE    PTCLDY    61  23  23 CALM      29.96R
DOUBLE EAGLE   PTCLDY    43  19  39 CALM      29.98R
MORIARTY ARPT  FAIR      51  19  28 NW3       30.01R
CLINES CORNERS PTCLDY    47  20  34 W13       30.01R
BELEN          CLOUDY    64  22  20 N12G30    29.96R
SOCORRO        FAIR      57  22  25 CALM      29.94S

$$
NMZ524>526-539-540-210500-
SOUTHCENTRAL MOUNTAINS

CITY           SKY/WX    TMP DP  RH WIND       PRES   REMARKS
RUIDOSO        MOCLDY    54  25  32 SW14      30.05S

$$
NMZ527>531-210500-
NORTHEAST HIGHLANDS/NORTHEAST PLAINS

CITY           SKY/WX    TMP DP  RH WIND       PRES   REMARKS
LAS VEGAS      MOCLDY    42  32  67 NE9G21    30.00R
RATON          MOCLDY    41  38  89 N7        29.97R
CLAYTON        PTCLDY    44  41  89 SW5       29.97R

$$
NMZ532>537-210500-
EASTCENTRAL PLAINS

CITY           SKY/WX    TMP DP  RH WIND       PRES   REMARKS
TUCUMCARI      MOCLDY    51  44  77 E8        29.93R
CANNON AFB     MOCLDY    58  37  44 S9        29.93R
CLOVIS AIRPORT CLOUDY    57  36  44 S15       29.93R

$$
NMZ028-029-538-210500-
SOUTHEAST PLAINS

CITY           SKY/WX    TMP DP  RH WIND       PRES   REMARKS
ROSWELL        PTCLDY    58  40  51 S6        29.91R
ARTESIA        PTCLDY    57  39  51 S12       29.91R
CARLSBAD       CLEAR     55  40  56 SW7       29.89R
HOBBS          CLEAR     54  39  58 SE9       29.94S


$$



USA.gov is the U.S. government's official web portal to all federal, state and local government web resources and services.